Skip Page Navigation
NASA JPL Caltech
NASA Logo - Jet Propulsion Laboratory + View the NASA Portal
+ Center for Near-Earth Object Studies
JPL Home Earth Solar System Stars & Galaxies Technology
JPL Solar System Dynamics
BODIES ORBITS EPHEMERIDES TOOLS PHYSICAL DATA DISCOVERY FAQ SITE MAP
JPL Small-Body Database Browser
Search: [ help ]  
393206 (2013 CM210)
Classification: Jupiter Trojan          SPK-ID: 2393206
Ephemeris | Orbit Diagram | Orbital Elements | Mission Design | Physical Parameters | Discovery Circumstances ]

[ hide orbit diagram ]

For accurate long-term ephemerides, please instead use our Horizons system.This orbit viewer was implemented using two-body methods, and hence should not be used for determining accurate long-term trajectories (over several years or decades) or planetary encounter circumstances.


[ revert to old Java-based viewer ]

Orbital Elements at Epoch 2459000.5 (2020-May-31.0) TDB
Reference: JPL 10 (heliocentric ecliptic J2000)
 Element Value Uncertainty (1-sigma)   Units 
e .03235250716730084 1.8062e-07  
a 5.111318667293863 7.4175e-07 au
q 4.945954693475879 1.5479e-06 au
i 8.188526784065253 1.735e-05 deg
node 285.5932507640193 0.00011761 deg
peri 115.4847826417219 0.00048652 deg
M 323.6091668262385 0.00050396 deg
tp 2459427.165337647316
(2021-Jul-31.66533765)
0.0059784 TDB
period 4220.830032102202
11.56
0.00091879
2.516e-06
d
yr
n .08529128092388512 1.8566e-08 deg/d
Q 5.276682641111845 7.6575e-07 au
  Orbit Determination Parameters
   # obs. used (total)      54  
   data-arc span      3624 days (9.92 yr)  
   first obs. used      2008-09-05  
   last obs. used      2018-08-08  
   planetary ephem.      DE431  
   SB-pert. ephem.      SB431-N16  
   condition code      0  
   norm. resid. RMS      .59422  
   source      ORB  
   producer      Otto Matic  
   solution date      2019-Jul-14 15:16:28  

Additional Information
 Earth MOID = 3.9648 au 
 Jupiter MOID = .00722363 au 
 T_jup = 2.979 
[ show covariance matrix ]

Ephemeris | Orbit Diagram | Orbital Elements | Mission Design | Physical Parameters | Discovery Circumstances ]

Physical Parameter Table
Parameter Symbol Value Units Sigma Reference Notes
absolute magnitude H 14.2   n/a MPO494991  

393206 (2013 CM210)          Discovered 2008-Sep-05 by Spacewatch at Kitt Peak
Reference: Last Updated: 2014-04-17
Ephemeris | Orbit Diagram | Orbital Elements | Mission Design | Physical Parameters | Discovery Circumstances ]
ABOUT SSD CREDITS/AWARDS PRIVACY/COPYRIGHT GLOSSARY LINKS
FirstGov 2020-Aug-10 00:36 UT
(server date/time)  
NASA Home Page
Site Manager:   Ryan S. Park
Webmaster  Alan B. Chamberlin